• In Hungary
  • List of Countries
  • For 7 days
  • Water Temperature
  • Satellite Maps
  • Weather Map
  • News
  • Weather Widgets
  • user-avatar
    Login

    Hourly Weather Bolshoe Vasilevo

    Today, 16 August, Thursday

    Time Temperature Precipitation Wind Pressure Humidity
    00:00 +17°C° 0 mm 2 mps 745 mmHg 98%
    01:00 +17°C° 0 mm 2 mps 746 mmHg 98%
    02:00 +17°C° 0 mm 2 mps 746 mmHg 98%
    03:00 +17°C° 0 mm 2 mps 746 mmHg 97%
    04:00 +16°C° 0 mm 2 mps 747 mmHg 97%
    05:00 +16°C° 0 mm 3 mps 747 mmHg 97%
    06:00 +16°C° 0 mm 3 mps 748 mmHg 95%
    07:00 +17°C° 0 mm 3 mps 748 mmHg 93%
    08:00 +17°C° 0 mm 3 mps 749 mmHg 91%
    09:00 +18°C° 0 mm 3 mps 749 mmHg 86%
    10:00 +18°C° 0 mm 2 mps 750 mmHg 81%
    11:00 +19°C° 0 mm 2 mps 750 mmHg 76%
    12:00 +20°C° 0 mm 3 mps 750 mmHg 70%
    13:00 +21°C° 0 mm 3 mps 751 mmHg 65%
    14:00 +22°C° 0 mm 3 mps 751 mmHg 59%
    15:00 +22°C° 0 mm 3 mps 751 mmHg 60%
    16:00 +23°C° 0 mm 2 mps 751 mmHg 61%
    17:00 +23°C° 0 mm 2 mps 751 mmHg 62%
    18:00 +20°C° 0 mm 2 mps 752 mmHg 68%
    19:00 +18°C° 0 mm 2 mps 752 mmHg 74%
    20:00 +16°C° 0 mm 1 mps 752 mmHg 81%
    21:00 +15°C° 0 mm 1 mps 753 mmHg 82%
    22:00 +14°C° 0 mm 1 mps 753 mmHg 83%
    23:00 +14°C° 0 mm 1 mps 753 mmHg 85%

    Tomorrow, 17 August, Friday

    Time Temperature Precipitation Wind Pressure Humidity
    00:00 +13°C° 0 mm 1 mps 754 mmHg 86%
    01:00 +13°C° 0 mm 1 mps 754 mmHg 87%
    02:00 +12°C° 0 mm 1 mps 754 mmHg 88%
    03:00 +12°C° 0 mm 1 mps 755 mmHg 88%
    04:00 +12°C° 0 mm 1 mps 755 mmHg 87%
    05:00 +12°C° 0 mm 1 mps 755 mmHg 87%
    06:00 +14°C° 0 mm 1 mps 755 mmHg 78%
    07:00 +18°C° 0 mm 1 mps 756 mmHg 69%
    08:00 +20°C° 0 mm 1 mps 756 mmHg 60%
    09:00 +21°C° 0 mm 1 mps 756 mmHg 55%
    10:00 +21°C° 0 mm 2 mps 756 mmHg 49%
    11:00 +24°C° 0 mm 2 mps 756 mmHg 44%
    12:00 +24°C° 0 mm 2 mps 756 mmHg 43%
    13:00 +24°C° 0 mm 2 mps 756 mmHg 42%
    14:00 +25°C° 0 mm 1 mps 755 mmHg 40%
    15:00 +24°C° 0 mm 1 mps 755 mmHg 45%
    16:00 +24°C° 0 mm 1 mps 755 mmHg 49%
    17:00 +23°C° 0 mm 1 mps 755 mmHg 53%
    18:00 +21°C° 0 mm 1 mps 755 mmHg 60%
    19:00 +19°C° 0 mm 1 mps 755 mmHg 66%
    20:00 +16°C° 0 mm 1 mps 755 mmHg 73%
    21:00 +15°C° 0 mm 1 mps 755 mmHg 75%
    22:00 +14°C° 0 mm 1 mps 755 mmHg 77%
    23:00 +14°C° 0 mm 1 mps 756 mmHg 80%

    Day after tomorrow, 18 August, Saturday

    Time Temperature Precipitation Wind Pressure Humidity
    00:00 +13°C° 0 mm 1 mps 756 mmHg 81%
    01:00 +13°C° 0 mm 1 mps 756 mmHg 82%
    02:00 +13°C° 0 mm 1 mps 756 mmHg 83%
    03:00 +13°C° 0 mm 1 mps 756 mmHg 83%
    04:00 +12°C° 0 mm 1 mps 756 mmHg 83%
    05:00 +12°C° 0 mm 1 mps 756 mmHg 84%
    06:00 +15°C° 0 mm 1 mps 756 mmHg 76%
    07:00 +18°C° 0 mm 1 mps 756 mmHg 69%
    08:00 +20°C° 0 mm 1 mps 756 mmHg 61%
    09:00 +21°C° 0 mm 2 mps 756 mmHg 56%
    10:00 +23°C° 0 mm 2 mps 756 mmHg 51%
    11:00 +25°C° 0 mm 2 mps 756 mmHg 46%
    12:00 +25°C° 0 mm 2 mps 756 mmHg 44%
    13:00 +26°C° 0 mm 2 mps 755 mmHg 42%
    14:00 +26°C° 0 mm 2 mps 755 mmHg 40%
    15:00 +26°C° 0 mm 1 mps 755 mmHg 45%
    16:00 +25°C° 0 mm 1 mps 754 mmHg 49%
    17:00 +25°C° 0 mm 1 mps 754 mmHg 53%
    18:00 +23°C° 0 mm 1 mps 754 mmHg 59%
    19:00 +20°C° 0 mm 1 mps 754 mmHg 66%
    20:00 +18°C° 0 mm 1 mps 754 mmHg 72%
    21:00 +16°C° 0 mm 2 mps 754 mmHg 74%
    22:00 +16°C° 0 mm 2 mps 754 mmHg 76%
    23:00 +15°C° 0 mm 2 mps 754 mmHg 78%

    19 August, Sunday

    Time Temperature Precipitation Wind Pressure Humidity
    00:00 +15°C° 0 mm 2 mps 754 mmHg 79%
    01:00 +15°C° 0 mm 2 mps 754 mmHg 81%
    02:00 +14°C° 0 mm 2 mps 754 mmHg 83%
    03:00 +14°C° 0 mm 2 mps 754 mmHg 84%
    04:00 +14°C° 0 mm 2 mps 754 mmHg 85%
    05:00 +14°C° 0 mm 2 mps 754 mmHg 86%
    06:00 +16°C° 0 mm 2 mps 754 mmHg 79%
    07:00 +18°C° 0 mm 2 mps 754 mmHg 72%
    08:00 +20°C° 0 mm 2 mps 753 mmHg 65%
    09:00 +22°C° 0 mm 3 mps 753 mmHg 59%
    10:00 +24°C° 0 mm 3 mps 753 mmHg 53%
    11:00 +26°C° 0 mm 4 mps 752 mmHg 47%
    12:00 +26°C° 0 mm 4 mps 752 mmHg 46%
    13:00 +27°C° 0 mm 4 mps 752 mmHg 45%
    14:00 +27°C° 0 mm 4 mps 751 mmHg 44%
    15:00 +26°C° 0 mm 4 mps 751 mmHg 48%
    16:00 +26°C° 0 mm 3 mps 750 mmHg 51%
    17:00 +25°C° 0 mm 3 mps 750 mmHg 55%
    18:00 +24°C° 0 mm 3 mps 750 mmHg 59%
    19:00 +21°C° 0 mm 3 mps 749 mmHg 62%
    20:00 +20°C° 0 mm 4 mps 749 mmHg 66%
    21:00 +19°C° 0 mm 4 mps 749 mmHg 68%
    22:00 +19°C° 0 mm 4 mps 749 mmHg 69%
    23:00 +19°C° 0 mm 4 mps 749 mmHg 71%

    20 August, Monday

    Time Temperature Precipitation Wind Pressure Humidity
    00:00 +19°C° 0 mm 4 mps 749 mmHg 75%
    01:00 +18°C° 0 mm 4 mps 749 mmHg 80%
    02:00 +17°C° 0 mm 3 mps 749 mmHg 85%
    03:00 +17°C° 0.1 mm 3 mps 749 mmHg 88%
    04:00 +17°C° 0.1 mm 2 mps 749 mmHg 91%
    05:00 +16°C° 0.1 mm 2 mps 749 mmHg 95%
    06:00 +17°C° 0 mm 2 mps 749 mmHg 91%
    07:00 +19°C° 0 mm 2 mps 749 mmHg 87%
    08:00 +20°C° 0 mm 2 mps 749 mmHg 83%
    09:00 +21°C° 0.2 mm 2 mps 749 mmHg 79%
    10:00 +23°C° 0.2 mm 2 mps 749 mmHg 74%
    11:00 +23°C° 0.2 mm 2 mps 749 mmHg 69%
    12:00 +23°C° 0.2 mm 2 mps 749 mmHg 69%
    13:00 +22°C° 0.2 mm 3 mps 749 mmHg 69%
    14:00 +22°C° 0.2 mm 3 mps 749 mmHg 69%
    15:00 +23°C° 0 mm 2 mps 749 mmHg 70%
    16:00 +21°C° 0 mm 2 mps 749 mmHg 71%
    17:00 +21°C° 0 mm 2 mps 749 mmHg 72%
    18:00 +20°C° 0 mm 2 mps 749 mmHg 77%
    19:00 +19°C° 0 mm 1 mps 749 mmHg 82%
    20:00 +18°C° 0 mm 1 mps 749 mmHg 88%
    21:00 +16°C° 0 mm 1 mps 749 mmHg 90%
    22:00 +16°C° 0 mm 1 mps 750 mmHg 92%
    23:00 +15°C° 0 mm 1 mps 750 mmHg 94%

    21 August, Tuesday

    Time Temperature Precipitation Wind Pressure Humidity
    00:00 +15°C° 0 mm 1 mps 750 mmHg 94%
    01:00 +15°C° 0 mm 1 mps 750 mmHg 94%
    02:00 +14°C° 0 mm 1 mps 750 mmHg 94%
    03:00 +13°C° 0 mm 0 mps 750 mmHg 93%
    04:00 +13°C° 0 mm 0 mps 750 mmHg 92%
    05:00 +14°C° 0 mm 0 mps 750 mmHg 91%
    06:00 +15°C° 0 mm 0 mps 750 mmHg 84%
    07:00 +17°C° 0 mm 0 mps 750 mmHg 77%
    08:00 +19°C° 0 mm 0 mps 750 mmHg 70%
    09:00 +21°C° 0 mm 0 mps 750 mmHg 64%
    10:00 +24°C° 0 mm 1 mps 750 mmHg 58%
    11:00 +26°C° 0 mm 1 mps 750 mmHg 52%
    12:00 +26°C° 0 mm 1 mps 750 mmHg 51%
    13:00 +26°C° 0 mm 1 mps 750 mmHg 50%
    14:00 +26°C° 0 mm 1 mps 749 mmHg 49%
    15:00 +25°C° 0 mm 1 mps 749 mmHg 53%
    16:00 +25°C° 0 mm 1 mps 749 mmHg 56%
    17:00 +24°C° 0 mm 1 mps 749 mmHg 60%
    18:00 +23°C° 0 mm 1 mps 749 mmHg 65%
    19:00 +21°C° 0 mm 1 mps 749 mmHg 70%
    20:00 +18°C° 0 mm 2 mps 749 mmHg 76%
    21:00 +17°C° 0 mm 2 mps 748 mmHg 77%
    22:00 +17°C° 0 mm 2 mps 748 mmHg 78%
    23:00 +17°C° 0 mm 2 mps 748 mmHg 80%
    Show more